Location: College Park
(38.9810°N, 76.9370°W)
Time: 05:50:16
(UTC-05:00)

Tiangong 1 - Pass Details

Date: 18 February 2018
Orbit: 247 x 269 km, 42.8° (Epoch: 21 February)

Event Time Altitude Azimuth Distance (km) Brightness Sun altitude
Exits shadow 05:43:05 59° 234° (SW) 295 0.2 -14.7°
Maximum altitude 05:43:15 63° 203° (SSW) 285 0.2 -14.7°
Drops below altitude 10° 05:45:30 10° 121° (ESE) 1,025 4.2 -14.2°
Sets 05:47:24 0° 118° (ESE) 1,829 5.8 -13.9°
